Content
SEND FEEDBACK

Daily
Averages
Monthly
Summary
United States of America

DUNNIGAN, CALIFORNIA


Home > North America > United States > California
Elevation: 60 feet     Latitude: 38 53N     Longitude: 121 58W

WEATHER
 
SELECT A DAY
Number of Records: 175,206;   Date Range: 1/1/95 - 8/30/14
 
SHARE

PRINT THIS DATA

[ ← Previous Day ]
WEATHER ALMANAC - FEBRUARY 13, 2013
[ Next Day → ]
[ °C ]   °F
Weather ElementAverageHighLow
Temperature47.4 °F62.1 °F (3:53 pm)33.1 °F (5:53 am)
Dewpoint38.3 °F43 °F (11:53 am)32 °F (5:53 am)
Humidity74.1 %100 % (7:53 am)39 % (3:53 pm)
Barometer30.28 in30.35 in (9:28 am)30.21 in (4:53 pm)
Wind Speed0.7 mph4.6 mph (5:53 am)
Weather ElementAverage
Visibility8 mi
Wind DirectionNNE (28.8 °)

Weather ElementTotal
Precipitation---
Heating Degree Days17.4 (Base 65)
Averaged from 24 records on February 13, 2013
WEATHER CONDITIONS BREAKOUT
WIND DIRECTION BREAKOUT
WEATHER BY HOUR - FEBRUARY 13, 2013
[ °C ]   °F
Local TimeTemperatureDewpointHumidityBarometerVisibilityWind DirectionWind SpeedGust SpeedPrecipitationEventsConditions
1:53 AM37.0 °F34.0 °F89 %30.33 in8.0 miCalmClear
2:53 AM39.0 °F36.0 °F89 %30.33 in8.0 miCalmClear
3:53 AM37.0 °F35.1 °F93 %30.32 in6.0 miCalmClear
4:53 AM36.0 °F35.1 °F97 %30.32 in5.0 miCalmFogClear
5:53 AM33.1 °F32.0 °F96 %30.32 in5.0 miNW (310°)4.6 mphFogClear
6:53 AM34.0 °F33.1 °F96 %30.33 in5.0 miCalmFogClear
7:53 AM34.0 °F34.0 °F100 %30.34 in5.0 miCalmFogPartly Cloudy
8:53 AM42.1 °F39.9 °F92 %30.34 in5.0 miCalmClear
9:28 AM46.4 °F39.2 °F76 %30.35 in7.0 miCalmClear
9:53 AM48.9 °F41.0 °F74 %30.35 in7.0 miCalmClear
10:53 AM53.1 °F42.1 °F66 %30.34 in7.0 miCalmClear
11:53 AM55.0 °F43.0 °F64 %30.32 in7.0 miSouth (180°)3.5 mphClear
12:53 PM57.9 °F42.1 °F56 %30.28 in7.0 miCalmClear
1:53 PM60.1 °F42.1 °F51 %30.25 in10.0 miCalmClear
2:53 PM61.0 °F43.0 °F52 %30.23 in10.0 miSSE (150°)4.6 mphClear
3:53 PM62.1 °F37.0 °F39 %30.22 in10.0 miCalmClear
4:53 PM62.1 °F37.0 °F39 %30.21 in10.0 miCalmClear
5:53 PM57.9 °F37.0 °F46 %30.21 in10.0 miCalmClear
6:53 PM54.0 °F37.9 °F55 %30.21 in10.0 miCalmClear
7:53 PM51.1 °F39.0 °F63 %30.22 in10.0 miCalmClear
8:53 PM45.0 °F39.0 °F80 %30.22 in10.0 miCalmClear
9:53 PM45.0 °F41.0 °F86 %30.22 in10.0 miCalmClear
10:53 PM41.0 °F39.0 °F93 %30.23 in10.0 miCalmClear
11:53 PM45.0 °F41.0 °F86 %30.23 in10.0 miNE (50°)3.5 mphClear
Hourly data recorded from KSMF, located miles away from Dunnigan, California







STORIES FROM OUR PARTNERS